[[{"header":{"parameterUnit":"m.s-1","parameterCategory":1,"la1":30.2992,"la2":30.254,"lo1":-89.0895,"lo2":-89.0443,"dy":0.0025,"dx":0.0025,"nx":19,"ny":19,"refTime":"2026-04-28T03:00:00:Z","depth":0,"parameterNumber":2,"parameterNumberName":"U-component_of_WINDS"},"data":[0,0,0,-0.6893,-0.6893,-0.6841,-0.6841,-0.6788,-0.6788,0,0,0,0,0,0,0,0,0,0,0,-0.6915,-0.6914,-0.6894,-0.6892,-0.6841,-0.6841,-0.6788,-0.6788,0,0,0,0,0,0,0,0,0,0,0,-0.6915,-0.6915,-0.6914,-0.6892,-0.6841,-0.6841,-0.6788,-0.6823,0,0,0,0,0,0,0,0,0,0,-0.6871,-0.6896,-0.6915,-0.6914,-0.6892,-0.6841,-0.6841,-0.6824,-0.6821,-0.6816,0,-0.6812,0,-0.6799,-0.6785,-0.6785,0,0,0,-0.6888,-0.6899,-0.6879,-0.6914,-0.6892,-0.6841,-0.6863,-0.6822,-0.6818,-0.6811,-0.6811,-0.6809,-0.6798,-0.6784,-0.6784,-0.6767,-0.6768,0,0,-0.6891,-0.6909,-0.6882,-0.6877,-0.6884,-0.6865,-0.6862,-0.6819,-0.6821,-0.6811,-0.6808,-0.6797,-0.6784,-0.6784,-0.6767,-0.6767,0,0,0,-0.6902,-0.6911,-0.6893,-0.6879,-0.6869,-0.6864,-0.686,-0.6823,-0.6815,-0.6807,-0.6797,-0.6784,-0.6783,-0.6767,-0.6767,-0.6789,0,0,0,-0.6904,-0.6918,-0.6894,-0.6905,-0.687,-0.6845,-0.6865,-0.6818,-0.6813,-0.6797,-0.6784,-0.6783,-0.6767,-0.6767,-0.6788,-0.6797,0,0,0,-0.6916,-0.6919,-0.6913,-0.6906,-0.6884,-0.6845,-0.6835,-0.6817,-0.6807,-0.6785,-0.6783,-0.6767,-0.6767,-0.6788,-0.6796,-0.6798,0,0,0,-0.6935,-0.6935,-0.6914,-0.691,-0.6884,-0.6859,-0.6835,-0.6815,-0.6799,-0.6784,-0.6767,-0.6767,-0.6787,-0.6795,-0.6797,-0.6803,-0.6807,0,0,-0.6945,-0.6936,-0.6932,-0.6912,-0.6895,-0.6865,-0.6851,-0.682,-0.6803,-0.6781,-0.678,-0.6789,-0.6796,-0.6798,-0.6822,-0.6825,0,0,0,-0.6942,-0.6939,-0.6931,-0.6915,-0.689,-0.6869,-0.6838,-0.6827,-0.6807,-0.6794,-0.6789,-0.6793,-0.6793,-0.6795,-0.6798,-0.6798,-0.6769,-0.6769,-0.6769,-0.6982,-0.6958,-0.695,-0.692,-0.6905,-0.6872,-0.6858,-0.6837,-0.6819,-0.6818,-0.6811,-0.6829,-0.6832,-0.6834,-0.6833,-0.6812,-0.6812,-0.6812,-0.6813,-0.6994,-0.6987,-0.6961,-0.6943,-0.6919,-0.6905,-0.6873,-0.6861,-0.6845,-0.6832,-0.6831,-0.6819,-0.6838,-0.6836,-0.6814,-0.6814,-0.6813,-0.6813,-0.6813,-0.7018,-0.701,-0.6995,-0.6969,-0.6952,-0.6922,-0.6908,-0.6886,-0.6866,-0.6865,-0.6856,-0.6856,-0.6853,-0.6862,-0.6862,-0.6862,-0.6862,-0.6862,-0.6862,-0.7049,-0.7031,-0.702,-0.6993,-0.698,-0.696,-0.6927,-0.6914,-0.6894,-0.6879,-0.6879,-0.6861,-0.6844,-0.684,-0.6863,-0.6863,-0.6863,-0.6863,-0.6863,-0.7071,-0.7062,-0.7046,-0.7033,-0.6999,-0.6984,-0.6956,-0.6931,-0.6917,-0.6911,-0.6893,-0.6883,-0.6874,-0.6871,-0.6868,-0.6897,-0.6897,-0.6897,-0.6897,-0.7092,-0.7084,-0.7062,-0.7042,-0.702,-0.6993,-0.6977,-0.6951,-0.6924,-0.6914,-0.6907,-0.69,-0.6899,-0.6891,-0.6888,-0.6885,-0.6917,-0.6917,-0.6917,-0.7104,-0.7093,-0.7083,-0.7054,-0.7026,-0.7003,-0.6987,-0.6967,-0.6934,-0.6918,-0.6906,-0.6905,-0.6895,-0.6893,-0.6877,-0.6873,-0.6867,0,0]},{"header":{"parameterUnit":"m.s-1","parameterCategory":1,"la1":30.2992,"la2":30.254,"lo1":-89.0895,"lo2":-89.0443,"dy":0.0025,"dx":0.0025,"nx":19,"ny":19,"refTime":"2026-04-28T03:00:00:Z","depth":0,"parameterNumber":3,"parameterNumberName":"V-component_of_WINDS"},"data":[0,0,0,4.684,4.6842,4.6938,4.6938,4.7057,4.7058,0,0,0,0,0,0,0,0,0,0,0,4.6812,4.6813,4.684,4.6842,4.6938,4.6938,4.7057,4.7058,0,0,0,0,0,0,0,0,0,0,0,4.6812,4.6813,4.6814,4.6843,4.6937,4.6938,4.7057,4.6985,0,0,0,0,0,0,0,0,0,0,4.6893,4.6868,4.6812,4.6814,4.6843,4.6937,4.6938,4.6982,4.699,4.7014,0,4.7036,0,4.7049,4.7066,4.7067,0,0,0,4.6841,4.6862,4.6887,4.6814,4.6844,4.6937,4.6894,4.6986,4.6995,4.7024,4.7038,4.7043,4.7051,4.7067,4.7068,4.7211,4.7212,0,0,4.6836,4.6829,4.6881,4.6893,4.688,4.6891,4.6897,4.6992,4.7006,4.7039,4.7045,4.7053,4.7068,4.7069,4.7211,4.7212,0,0,0,4.6822,4.6825,4.6849,4.6888,4.6905,4.6894,4.6901,4.7002,4.701,4.7047,4.7055,4.7069,4.707,4.721,4.7211,4.7239,0,0,0,4.6818,4.6817,4.6846,4.6843,4.6904,4.6955,4.6909,4.7004,4.7014,4.7054,4.7069,4.7071,4.7209,4.721,4.7237,4.7254,0,0,0,4.6806,4.6815,4.683,4.6842,4.6883,4.6954,4.6968,4.7006,4.7019,4.7067,4.7072,4.7209,4.721,4.7235,4.725,4.7289,0,0,0,4.679,4.6853,4.683,4.6903,4.6883,4.6972,4.6967,4.7033,4.7077,4.7069,4.7209,4.7211,4.7234,4.7248,4.7287,4.732,4.7334,0,0,4.6865,4.6862,4.6906,4.6888,4.6979,4.6957,4.7052,4.7099,4.7109,4.7176,4.718,4.7238,4.725,4.7289,4.7413,4.7424,0,0,0,4.6927,4.6958,4.6984,4.7027,4.7065,4.7098,4.7131,4.7148,4.7205,4.7143,4.7263,4.727,4.7293,4.7309,4.7319,4.7338,4.7218,4.7218,4.7218,4.7023,4.7034,4.7107,4.7129,4.717,4.7204,4.7237,4.7265,4.7264,4.7292,4.7312,4.7386,4.7405,4.7412,4.7432,4.7331,4.7331,4.7331,4.7331,4.7135,4.7181,4.7177,4.7247,4.7257,4.7315,4.7349,4.7345,4.7399,4.7372,4.7393,4.7362,4.7424,4.7442,4.7333,4.7333,4.7332,4.7332,4.7332,4.7199,4.7223,4.7243,4.7305,4.7352,4.7371,4.7424,4.7431,4.7438,4.7458,4.7479,4.7479,4.7479,4.7468,4.7468,4.7468,4.7469,4.7469,4.7469,4.7257,4.7279,4.7323,4.7369,4.7397,4.7434,4.7468,4.7495,4.7526,4.7527,4.7527,4.7522,4.7428,4.7404,4.7473,4.7472,4.7472,4.7471,4.7471,4.7365,4.7342,4.741,4.7438,4.7491,4.7536,4.7545,4.7599,4.7622,4.7648,4.7638,4.7568,4.7564,4.7557,4.7537,4.7636,4.7636,4.7636,4.7636,4.7419,4.7418,4.7489,4.7533,4.7577,4.7592,4.7667,4.7693,4.7716,4.773,4.7717,4.7692,4.7684,4.7685,4.7675,4.7656,4.7783,4.7784,4.7784,4.7485,4.7489,4.7552,4.7576,4.7618,4.7654,4.7724,4.7773,4.7794,4.779,4.7742,4.7736,4.7694,4.768,4.7674,4.7659,4.7625,0,0]}]]